カタログに戻る

RADUGA 4

運用中軍事GEO
NORAD 10987·PAYLOAD·🇷🇺 Russia

打ち上げ Jul 18, 1978 から Baikonur Cosmodrome

Loading…

TLE

最新Source: Space-Track

元期: Sep 14, 2026, 14:07 UTC

1 10987U 78073A   26257.58827440 -.00000002  00000-0  00000-0 0  9993
2 10987   4.5648 277.5206 0010691  30.5701 323.7767  1.00194947120492

AllMySatでRADUGA 4をリアルタイム追跡

Download on the App Store